timestamp,wind_dir_avg,wind_spd_avg,wind_spd_max_dir,wind_spd_gust,battery_voltage,lat,long
2024-02-08 00:04:00+00:00,14.0,7.5,32.0,9.35,12.25,47.59359,-54.27349
2024-02-08 00:14:00+00:00,4.0,8.48,3.0,9.39,12.25,47.59359,-54.27349
2024-02-08 00:24:00+00:00,5.0,8.07,2.0,8.94,12.25,47.59359,-54.27349
2024-02-08 00:34:00+00:00,357.0,8.6,359.0,10.05,12.25,47.59359,-54.27349
2024-02-08 00:44:00+00:00,15.0,8.24,25.0,9.77,12.25,47.59359,-54.27349
2024-02-08 00:54:00+00:00,358.0,8.84,344.0,9.94,12.25,47.59359,-54.27349
2024-02-08 01:04:00+00:00,359.0,8.17,350.0,9.38,12.25,47.59359,-54.27349
2024-02-08 01:14:00+00:00,358.0,8.18,7.0,9.76,12.17,47.59359,-54.27349
2024-02-08 01:24:00+00:00,7.0,8.61,1.0,11.79,12.17,47.59359,-54.27349
2024-02-08 01:34:00+00:00,3.0,7.77,30.0,9.01,12.17,47.59359,-54.27349
2024-02-08 01:44:00+00:00,1.0,8.31,27.0,9.15,12.17,47.59359,-54.27349
2024-02-08 01:54:00+00:00,338.0,9.57,330.0,10.76,12.17,47.59359,-54.27349
2024-02-08 02:04:00+00:00,0.0,9.44,359.0,10.97,12.17,47.59359,-54.27349
2024-02-08 02:14:00+00:00,358.0,8.84,356.0,9.64,12.17,47.59359,-54.27349
2024-02-08 02:24:00+00:00,3.0,9.14,30.0,10.31,12.17,47.59359,-54.27349
2024-02-08 02:34:00+00:00,6.0,9.31,31.0,10.45,12.17,47.59359,-54.27349
2024-02-08 02:44:00+00:00,353.0,8.57,342.0,9.95,12.17,47.59359,-54.27349
2024-02-08 02:54:00+00:00,0.0,8.52,359.0,9.79,12.17,47.59359,-54.27349
2024-02-08 03:04:00+00:00,11.0,7.98,35.0,9.55,12.17,47.59359,-54.27349
2024-02-08 03:14:00+00:00,357.0,6.97,333.0,8.43,12.17,47.59359,-54.27349
2024-02-08 03:24:00+00:00,0.0,7.65,1.0,7.66,12.17,47.59359,-54.27349
2024-02-08 03:34:00+00:00,1.0,7.71,4.0,8.48,12.17,47.59359,-54.27349
2024-02-08 03:44:00+00:00,359.0,7.72,358.0,8.97,12.17,47.59359,-54.27349
2024-02-08 03:54:00+00:00,29.0,9.6,29.0,10.66,12.17,47.59359,-54.27349
2024-02-08 04:04:00+00:00,26.0,8.46,31.0,10.22,12.17,47.59359,-54.27349
2024-02-08 04:14:00+00:00,339.0,8.79,327.0,9.9,12.17,47.59359,-54.27349
2024-02-08 04:24:00+00:00,0.0,8.22,0.0,8.54,12.17,47.59359,-54.27349
2024-02-08 04:34:00+00:00,29.0,7.57,31.0,8.53,12.17,47.59359,-54.27349
2024-02-08 04:44:00+00:00,33.0,8.96,34.0,9.89,12.17,47.59359,-54.27349
2024-02-08 04:54:00+00:00,29.0,7.33,25.0,9.03,12.17,47.59359,-54.27349
2024-02-08 05:04:00+00:00,34.0,8.18,45.0,10.33,12.17,47.59359,-54.27349
2024-02-08 05:14:01+00:00,315.0,0.01,34.0,0.0,12.09,47.59359,-54.27349
2024-02-08 05:24:01+00:00,36.0,8.32,37.0,9.72,12.09,47.59359,-54.27349
2024-02-08 05:34:01+00:00,30.0,7.9,33.0,10.48,12.09,47.59359,-54.27349
2024-02-08 05:44:01+00:00,28.0,8.29,39.0,9.27,12.09,47.59359,-54.27349
2024-02-08 05:54:01+00:00,35.0,8.79,34.0,9.79,12.09,47.59359,-54.27349
2024-02-08 06:04:01+00:00,32.0,8.72,36.0,9.85,12.09,47.59359,-54.27349
2024-02-08 06:14:00+00:00,35.0,7.98,36.0,9.69,12.09,47.59359,-54.27349
2024-02-08 06:24:00+00:00,16.0,6.13,38.0,8.24,12.09,47.59359,-54.27349
2024-02-08 06:34:00+00:00,32.0,6.56,43.0,8.35,12.09,47.59359,-54.27349
2024-02-08 06:44:00+00:00,38.0,7.48,38.0,8.84,12.09,47.59359,-54.27349
2024-02-08 06:54:00+00:00,25.0,8.36,31.0,9.81,12.09,47.59359,-54.27349
2024-02-08 07:04:00+00:00,23.0,8.54,33.0,10.24,12.09,47.59359,-54.27349
2024-02-08 07:14:00+00:00,17.0,9.23,21.0,10.49,12.09,47.59359,-54.27349
2024-02-08 07:24:00+00:00,21.0,10.04,20.0,12.09,12.09,47.59359,-54.27349
2024-02-08 07:34:00+00:00,30.0,9.38,32.0,10.7,12.09,47.59359,-54.27349
2024-02-08 07:44:00+00:00,27.0,9.57,32.0,10.93,12.09,47.59359,-54.27349
2024-02-08 07:54:00+00:00,26.0,8.17,35.0,9.51,12.09,47.59359,-54.27349
2024-02-08 08:04:00+00:00,29.0,8.73,35.0,10.23,12.09,47.59359,-54.27349
2024-02-08 08:14:01+00:00,29.0,9.06,30.0,10.45,12.09,47.59359,-54.27349
2024-02-08 08:24:01+00:00,28.0,9.34,32.0,10.55,12.09,47.59359,-54.27349
2024-02-08 08:34:01+00:00,23.0,8.65,33.0,9.97,12.09,47.59359,-54.27349
2024-02-08 08:44:01+00:00,29.0,8.37,38.0,9.76,12.09,47.59359,-54.27349
2024-02-08 08:54:01+00:00,31.0,9.7,31.0,10.9,12.09,47.59359,-54.27349
2024-02-08 09:04:01+00:00,27.0,9.62,32.0,10.64,12.09,47.59359,-54.27349
2024-02-08 09:14:00+00:00,30.0,8.36,30.0,10.07,12.01,47.59359,-54.27349
2024-02-08 09:24:00+00:00,25.0,9.17,27.0,10.58,12.01,47.59359,-54.27349
2024-02-08 09:34:00+00:00,24.0,9.39,32.0,10.16,12.01,47.59359,-54.27349
2024-02-08 09:44:00+00:00,22.0,9.42,16.0,11.07,12.01,47.59359,-54.27349
2024-02-08 09:54:00+00:00,23.0,8.88,22.0,10.07,12.01,47.59359,-54.27349
2024-02-08 10:04:00+00:00,27.0,8.59,33.0,10.03,12.01,47.59359,-54.27349
2024-02-08 10:14:00+00:00,25.0,9.53,30.0,10.94,12.01,47.59359,-54.27349
2024-02-08 10:24:00+00:00,22.0,9.23,30.0,10.47,12.01,47.59359,-54.27349
2024-02-08 10:34:00+00:00,25.0,10.1,28.0,11.62,12.01,47.59359,-54.27349
2024-02-08 10:44:00+00:00,26.0,9.52,32.0,10.82,12.01,47.59359,-54.27349
2024-02-08 10:54:00+00:00,23.0,8.87,21.0,9.8,12.01,47.59359,-54.27349
2024-02-08 11:04:00+00:00,26.0,8.21,33.0,10.2,12.01,47.59359,-54.27349
2024-02-08 11:14:00+00:00,28.0,8.8,34.0,10.64,12.01,47.59359,-54.27349
2024-02-08 11:24:00+00:00,29.0,8.4,38.0,9.64,12.01,47.59359,-54.27349
2024-02-08 11:34:00+00:00,26.0,8.44,23.0,10.68,12.01,47.59359,-54.27349
2024-02-08 11:44:00+00:00,24.0,8.54,25.0,9.37,12.01,47.59359,-54.27349
2024-02-08 11:54:00+00:00,22.0,9.38,22.0,10.29,12.01,47.59359,-54.27349
2024-02-08 12:04:00+00:00,26.0,9.01,28.0,10.39,12.01,47.59359,-54.27349
2024-02-08 12:14:00+00:00,23.0,9.41,34.0,10.85,12.57,47.59359,-54.27349
2024-02-08 12:24:00+00:00,27.0,8.5,35.0,10.0,12.57,47.59359,-54.27349
2024-02-08 12:34:00+00:00,25.0,9.41,27.0,10.38,12.57,47.59359,-54.27349
2024-02-08 12:44:00+00:00,23.0,8.94,34.0,10.21,12.57,47.59359,-54.27349
2024-02-08 12:54:00+00:00,28.0,9.28,34.0,10.74,12.57,47.59359,-54.27349
2024-02-08 13:04:00+00:00,28.0,9.83,31.0,11.54,12.57,47.59359,-54.27349
2024-02-08 13:14:00+00:00,22.0,9.71,18.0,10.78,13.84,47.59359,-54.27349
2024-02-08 13:24:00+00:00,13.0,9.34,12.0,10.5,13.84,47.59359,-54.27349
2024-02-08 13:34:00+00:00,22.0,9.29,24.0,10.34,13.84,47.59359,-54.27349
2024-02-08 13:44:00+00:00,19.0,8.33,26.0,9.43,13.84,47.59359,-54.27349
2024-02-08 13:54:00+00:00,18.0,8.28,43.0,10.79,13.84,47.59359,-54.27349
2024-02-08 14:04:00+00:00,17.0,8.13,31.0,9.35,13.84,47.59359,-54.27349
2024-02-08 14:14:00+00:00,20.0,8.95,32.0,10.38,13.6,47.59359,-54.27349
2024-02-08 14:24:00+00:00,21.0,9.06,33.0,10.58,13.6,47.59359,-54.27349
2024-02-08 14:34:00+00:00,26.0,9.46,33.0,10.74,13.6,47.59359,-54.27349
2024-02-08 14:44:00+00:00,21.0,8.69,21.0,9.46,13.6,47.59359,-54.27349
2024-02-08 14:54:00+00:00,26.0,8.45,32.0,9.32,13.6,47.59359,-54.27349
2024-02-08 15:04:00+00:00,22.0,7.27,28.0,8.27,13.6,47.59359,-54.27349
2024-02-08 15:14:00+00:00,25.0,8.33,35.0,8.93,13.6,47.59359,-54.27349
2024-02-08 15:24:00+00:00,19.0,6.28,19.0,6.41,13.6,47.59359,-54.27349
2024-02-08 15:34:00+00:00,27.0,8.51,26.0,9.03,13.6,47.59359,-54.27349
2024-02-08 15:44:00+00:00,22.0,8.85,31.0,9.79,13.6,47.59359,-54.27349
2024-02-08 15:54:00+00:00,17.0,9.96,27.0,11.29,13.6,47.59359,-54.27349
2024-02-08 16:04:00+00:00,27.0,9.01,38.0,11.36,13.6,47.59359,-54.27349
2024-02-08 16:14:00+00:00,29.0,9.1,27.0,9.5,13.44,47.59359,-54.27349
2024-02-08 16:24:00+00:00,16.0,8.26,15.0,9.01,13.44,47.59359,-54.27349
2024-02-08 16:34:00+00:00,15.0,7.35,19.0,7.76,13.44,47.59359,-54.27349
2024-02-08 16:44:00+00:00,15.0,7.43,25.0,7.94,13.44,47.59359,-54.27349
2024-02-08 16:54:00+00:00,26.0,10.02,29.0,10.45,13.44,47.59359,-54.27349
2024-02-08 17:04:00+00:00,15.0,7.92,16.0,8.21,13.44,47.59359,-54.27349
2024-02-08 17:14:00+00:00,32.0,9.41,33.0,9.59,13.68,47.59359,-54.27349
2024-02-08 17:24:00+00:00,23.0,9.24,31.0,9.93,13.68,47.59359,-54.27349
2024-02-08 17:34:00+00:00,26.0,8.56,34.0,9.25,13.68,47.59359,-54.27349
2024-02-08 17:44:00+00:00,33.0,9.21,33.0,9.44,13.68,47.59359,-54.27349
2024-02-08 17:54:00+00:00,31.0,9.91,32.0,10.73,13.68,47.59359,-54.27349
2024-02-08 18:04:00+00:00,33.0,10.18,35.0,11.84,13.68,47.59359,-54.27349
2024-02-08 18:14:00+00:00,32.0,10.49,36.0,11.51,13.53,47.59359,-54.27349
2024-02-08 18:24:00+00:00,29.0,10.77,30.0,11.68,13.53,47.59359,-54.27349
2024-02-08 18:34:00+00:00,30.0,10.79,32.0,11.63,13.53,47.59359,-54.27349
2024-02-08 18:44:00+00:00,31.0,9.88,32.0,10.36,13.53,47.59359,-54.27349
2024-02-08 18:54:00+00:00,34.0,11.35,33.0,12.25,13.53,47.59359,-54.27349
2024-02-08 19:04:00+00:00,40.0,9.31,39.0,10.8,13.53,47.59359,-54.27349
2024-02-08 19:14:00+00:00,40.0,8.64,35.0,10.05,13.21,47.59359,-54.27349
2024-02-08 19:24:00+00:00,33.0,8.81,33.0,9.19,13.21,47.59359,-54.27349
2024-02-08 19:34:00+00:00,51.0,8.46,54.0,10.25,13.21,47.59359,-54.27349
2024-02-08 19:44:00+00:00,45.0,7.86,50.0,8.83,13.21,47.59359,-54.27349
2024-02-08 19:54:00+00:00,49.0,7.78,52.0,9.03,13.21,47.59359,-54.27349
2024-02-08 20:04:00+00:00,41.0,9.33,41.0,9.96,13.21,47.59359,-54.27349
2024-02-08 20:14:00+00:00,37.0,9.38,34.0,10.65,12.65,47.59359,-54.27349
2024-02-08 20:24:00+00:00,31.0,11.01,33.0,11.74,12.65,47.59359,-54.27349
2024-02-08 20:34:00+00:00,44.0,8.33,38.0,9.14,12.65,47.59359,-54.27349
2024-02-08 20:44:00+00:00,43.0,8.96,47.0,9.86,12.65,47.59359,-54.27349
2024-02-08 20:54:00+00:00,40.0,7.82,45.0,8.05,12.65,47.59359,-54.27349
2024-02-08 21:04:00+00:00,41.0,8.09,36.0,9.15,12.65,47.59359,-54.27349
2024-02-08 21:14:00+00:00,49.0,8.23,51.0,10.24,12.33,47.59359,-54.27349
2024-02-08 21:24:00+00:00,51.0,7.52,39.0,8.79,12.33,47.59359,-54.27349
2024-02-08 21:34:00+00:00,44.0,8.09,37.0,8.73,12.33,47.59359,-54.27349
2024-02-08 21:44:00+00:00,315.0,0.01,41.0,0.0,12.33,47.59359,-54.27349
2024-02-08 21:54:00+00:00,39.0,7.97,41.0,8.62,12.33,47.59359,-54.27349
2024-02-08 22:04:00+00:00,42.0,7.76,41.0,8.24,12.33,47.59359,-54.27349
2024-02-08 22:14:00+00:00,43.0,7.48,44.0,8.14,12.25,47.59359,-54.27349
2024-02-08 22:24:00+00:00,315.0,0.01,36.0,0.0,12.25,47.59359,-54.27349
2024-02-08 22:34:00+00:00,35.0,9.64,36.0,10.13,12.25,47.59359,-54.27349
2024-02-08 22:44:00+00:00,27.0,10.78,25.0,11.25,12.25,47.59359,-54.27349
2024-02-08 22:54:00+00:00,34.0,10.58,34.0,11.87,12.25,47.59359,-54.27349
2024-02-08 23:04:00+00:00,42.0,7.74,33.0,9.11,12.25,47.59359,-54.27349
2024-02-08 23:14:00+00:00,315.0,0.01,34.0,0.0,12.25,47.59359,-54.27349
2024-02-08 23:24:00+00:00,315.0,0.01,32.0,0.0,12.25,47.59359,-54.27349
2024-02-08 23:34:00+00:00,33.0,9.93,34.0,10.93,12.25,47.59359,-54.27349
2024-02-08 23:44:00+00:00,33.0,10.26,32.0,11.23,12.25,47.59359,-54.27349
2024-02-08 23:54:00+00:00,37.0,8.8,36.0,9.49,12.25,47.59359,-54.27349
